[[{"header":{"parameterUnit":"m.s-1","parameterCategory":1,"la1":30.2991,"la2":30.254,"lo1":-89.0895,"lo2":-89.0444,"dy":0.0017,"dx":0.0017,"nx":28,"ny":28,"refTime":"2024-05-06T21:00:00:Z","depth":0,"parameterNumber":2,"parameterNumberName":"U-component_of_WINDS"},"data":[0,0,0,0,0,0,0,0,0,0,0,0,0,0,0,0,0,0,0,0,0,0,0,0,0,0,0,0,0,0,0,0,0,0,0,0,0,0,0,0,0,0,0,0,0,0,0,0,0,0,0,0,0,0,0,0,0,0,-1.004,-1.0039,0,-0.9967,-0.9966,-0.9965,-0.9924,-0.9924,-0.9924,-0.9924,-0.985,-0.9849,-0.9847,0,0,0,0,0,0,0,0,0,0,0,0,0,-1.0146,-1.0144,-1.004,-1.0039,-1.0038,-0.9967,-0.9966,-0.9965,-0.9924,-0.9924,-0.9924,-0.9924,-0.9851,-0.9849,-0.9847,0,0,0,0,0,0,0,0,0,0,0,0,0,-1.0089,-1.0143,-1.004,-1.0009,-1.0006,-0.9967,-0.9966,-0.9964,-0.9924,-0.9924,-0.9924,-0.9924,-0.9852,-0.9849,-0.9846,-0.9833,0,0,-0.9838,-0.9837,0,0,0,0,0,0,0,0,-1.0092,-1.0085,-1.0015,-1.0011,-1.0007,-0.9954,-0.9976,-0.992,-0.9924,-0.9955,-0.9924,-0.9924,-0.9885,-0.988,-0.9866,-0.983,-0.9827,-0.9838,-0.9836,-0.9835,-0.9834,0,0,0,0,0,0,0,-1.0096,-1.0088,-1.0011,-1.0014,-1.0009,-0.9999,-0.9991,-0.9965,-0.9922,-0.9953,-0.9949,-0.9941,-0.9883,-0.9869,-0.9864,-0.9825,-0.9838,-0.9835,-0.9834,-0.9833,-0.9773,-0.9773,0,0,0,0,0,0,-1.0105,-1.0092,-1.0013,-1.0009,-1.005,-0.9998,-0.9988,-0.9972,-0.9922,-0.9915,-0.9941,-0.994,-0.9874,-0.9868,-0.9862,-0.9842,-0.9835,-0.9832,-0.9831,-0.9773,-0.9773,-0.9773,0,0,0,0,0,0,-1.0107,-1.0098,-1.0016,-1.0049,-1.0038,-0.9996,-0.9977,-0.997,-0.9956,-0.9914,-0.9906,-0.9935,-0.9874,-0.9866,-0.984,-0.9839,-0.9831,-0.9829,-0.9773,-0.9773,-0.9773,-0.9803,0,0,0,0,0,0,-1.0111,-1.0099,-1.0094,-1.0049,-1.0036,-0.9996,-0.9977,-0.9969,-0.9951,-0.9948,-0.9906,-0.9899,-0.9873,-0.9844,-0.9837,-0.9835,-0.9826,-0.9773,-0.9773,-0.9773,-0.9802,-0.9804,-0.9806,0,0,0,0,0,-1.0114,-1.0106,-1.0094,-1.0085,-1.0028,-0.9996,-0.9988,-0.9958,-0.9951,-0.9945,-0.9918,-0.99,-0.984,-0.9842,-0.9834,-0.9831,-0.9773,-0.9773,-0.9773,-0.9801,-0.9804,-0.9806,0,0,0,0,0,0,-1.0152,-1.01,-1.0085,-1.0062,-1.0034,-0.9989,-0.998,-0.9962,-0.9936,-0.9934,-0.9898,-0.9889,-0.9867,-0.9846,-0.9849,-0.9815,-0.9804,-0.9803,-0.9829,-0.9831,-0.9833,-0.9838,-0.9824,0,0,0,0,0,-1.0158,-1.0135,-1.009,-1.0074,-1.0061,-1.0023,-1.0008,-0.9987,-0.9956,-0.9944,-0.9915,-0.9886,-0.9861,-0.9845,-0.9819,-0.9799,-0.9789,-0.9793,-0.9795,-0.9797,-0.9796,-0.9782,-0.9783,-0.9774,-0.9773,-0.9773,0,0,-1.0169,-1.0137,-1.0125,-1.0081,-1.0056,-1.0034,-1.0013,-0.9991,-0.9973,-0.9941,-0.9914,-0.9892,-0.9858,-0.9835,-0.9823,-0.9817,-0.9796,-0.9797,-0.9799,-0.9796,-0.9783,-0.9784,-0.9784,-0.9774,-0.9774,-0.9774,0,0,-1.0178,-1.0152,-1.0135,-1.011,-1.0073,-1.0048,-1.0044,-1.0002,-0.9985,-0.9958,-0.9933,-0.9912,-0.987,-0.9846,-0.9828,-0.9827,-0.9809,-0.982,-0.983,-0.9818,-0.9818,-0.9819,-0.9818,-0.9818,-0.9819,-0.9819,-0.9819,0,-1.0197,-1.0161,-1.0129,-1.0107,-1.0088,-1.0056,-1.0039,-1.0017,-0.9974,-0.9961,-0.9955,-0.9899,-0.9874,-0.9844,-0.9844,-0.9831,-0.9825,-0.9824,-0.9821,-0.9821,-0.9821,-0.9819,-0.9819,-0.982,-0.982,-0.982,-0.982,0,-1.0186,-1.0162,-1.0153,-1.011,-1.009,-1.0071,-1.0036,-1.0019,-1.0,-0.9976,-0.9948,-0.9917,-0.9883,-0.9875,-0.9857,-0.9842,-0.984,-0.9828,-0.9817,-0.9824,-0.9822,-0.9821,-0.9822,-0.9822,-0.9821,-0.9821,0,0,-1.0217,-1.0156,-1.0153,-1.0133,-1.0089,-1.007,-1.0049,-1.0016,-1.0002,-0.9973,-0.9954,-0.9918,-0.9907,-0.9887,-0.9865,-0.9854,-0.9854,-0.9843,-0.9842,-0.9846,-0.9836,-0.9845,-0.9844,-0.9842,-0.9842,-0.9842,-0.9838,0,-1.0219,-1.0179,-1.0148,-1.012,-1.0097,-1.0066,-1.0048,-1.0019,-0.9996,-0.9973,-0.9947,-0.9922,-0.9909,-0.9896,-0.9884,-0.9857,-0.9852,-0.9857,-0.9824,-0.9823,-0.9833,-0.9843,-0.9853,-0.9851,-0.9837,-0.9837,-0.9837,0,-1.0216,-1.0187,-1.0156,-1.0113,-1.0102,-1.0086,-1.0053,-1.0031,-0.9998,-0.9982,-0.9959,-0.9936,-0.9913,-0.9904,-0.9871,-0.9875,-0.986,-0.9845,-0.9844,-0.9839,-0.983,-0.9839,-0.985,-0.985,-0.9836,-0.9836,-0.9836,0,-1.024,-1.0193,-1.0168,-1.0152,-1.0103,-1.0092,-1.0071,-1.0037,-1.0018,-0.999,-0.9977,-0.9946,-0.9929,-0.9906,-0.9876,-0.9872,-0.9845,-0.9835,-0.9831,-0.9832,-0.9826,-0.9827,-0.9835,-0.9818,-0.9818,-0.9818,-0.9818,0,-1.0245,-1.0227,-1.0179,-1.0163,-1.0142,-1.0108,-1.0088,-1.0064,-1.0034,-1.0014,-0.9986,-0.9968,-0.9929,-0.9906,-0.9882,-0.9858,-0.9851,-0.9837,-0.983,-0.9839,-0.984,-0.9828,-0.9827,-0.9818,-0.9818,-0.9818,-0.9818,0,-1.0269,-1.0236,-1.0206,-1.0161,-1.0149,-1.0136,-1.0097,-1.0081,-1.0056,-1.003,-1.0022,-0.9983,-0.9954,-0.9921,-0.9882,-0.9866,-0.9843,-0.9835,-0.9854,-0.9851,-0.9849,-0.9849,-0.9848,-0.9846,-0.9832,-0.9832,-0.9832,0,-1.0274,-1.0259,-1.0212,-1.0196,-1.0175,-1.015,-1.013,-1.0096,-1.0077,-1.0037,-1.0026,-0.9995,-0.9968,-0.9923,-0.9892,-0.9861,-0.9851,-0.9853,-0.9847,-0.9855,-0.985,-0.9851,-0.9849,-0.9855,-0.9855,-0.9856,-0.9856,0,-1.0286,-1.027,-1.0243,-1.021,-1.0188,-1.016,-1.0132,-1.012,-1.008,-1.006,-1.003,-1.0009,-0.9968,-0.9938,-0.9903,-0.9882,-0.9862,-0.9858,-0.9855,-0.9864,-0.9875,-0.9868,-0.9859,-0.9858,-0.9858,-0.9858,-0.9858,-0.9858,-1.03,-1.0285,-1.0249,-1.022,-1.0194,-1.0168,-1.015,-1.0123,-1.0097,-1.006,-1.0041,-1.0011,-0.9977,-0.9929,-0.9908,-0.9884,-0.9877,-0.9874,-0.9873,-0.9872,-0.9874,-0.9879,-0.9878,-0.9877,-0.9877,-0.9877,-0.9877,0,-1.031,-1.0285,-1.0258,-1.0219,-1.0196,-1.0178,-1.0146,-1.0128,-1.0101,-1.0071,-1.0045,-1.001,-0.9979,-0.9945,-0.9913,-0.99,-0.989,-0.9893,-0.9893,-0.9888,-0.9882,-0.9887,-0.9901,-0.9901,-0.9901,-0.9901,-0.9901,-0.9901,-1.0313,-1.0286,-1.0266,-1.0226,-1.0201,-1.0171,-1.0154,-1.0129,-1.0105,-1.0066,-1.0041,-1.0018,-0.9986,-0.9951,-0.9923,-0.9913,-0.9903,-0.9908,-0.9896,-0.9891,-0.9889,-0.9887,-0.9891,-0.9906,-0.9906,-0.9903,-0.9903,-0.9903]},{"header":{"parameterUnit":"m.s-1","parameterCategory":1,"la1":30.2991,"la2":30.254,"lo1":-89.0895,"lo2":-89.0444,"dy":0.0017,"dx":0.0017,"nx":28,"ny":28,"refTime":"2024-05-06T21:00:00:Z","depth":0,"parameterNumber":3,"parameterNumberName":"V-component_of_WINDS"},"data":[0,0,0,0,0,0,0,0,0,0,0,0,0,0,0,0,0,0,0,0,0,0,0,0,0,0,0,0,0,0,0,0,0,0,0,0,0,0,0,0,0,0,0,0,0,0,0,0,0,0,0,0,0,0,0,0,0,0,5.9625,5.9626,0,5.9692,5.9692,5.9693,5.9646,5.9644,5.9642,5.964,5.9702,5.9705,5.9709,0,0,0,0,0,0,0,0,0,0,0,0,0,5.9451,5.9454,5.9625,5.9626,5.9627,5.9692,5.9692,5.9693,5.9647,5.9644,5.9642,5.9639,5.97,5.9705,5.9709,0,0,0,0,0,0,0,0,0,0,0,0,0,5.9523,5.9455,5.9625,5.9611,5.9611,5.9691,5.9692,5.9694,5.9647,5.9644,5.9641,5.9638,5.9699,5.9704,5.9709,5.9805,0,0,5.9726,5.9728,0,0,0,0,0,0,0,0,5.9518,5.9529,5.9612,5.9612,5.9612,5.9658,5.9653,5.9731,5.9648,5.9633,5.964,5.9637,5.9689,5.9695,5.9714,5.9808,5.981,5.9726,5.973,5.9732,5.9733,0,0,0,0,0,0,0,5.9514,5.9526,5.9651,5.9614,5.9613,5.96,5.9607,5.9668,5.9677,5.9634,5.9631,5.964,5.9688,5.9709,5.9715,5.9811,5.9726,5.9731,5.9734,5.9736,5.9987,5.999,0,0,0,0,0,0,5.9511,5.9522,5.9649,5.9653,5.9557,5.9606,5.9613,5.9646,5.9677,5.9679,5.9643,5.9638,5.9701,5.9709,5.9717,5.9832,5.9732,5.9737,5.974,5.9984,5.9988,5.9991,0,0,0,0,0,0,5.9507,5.9523,5.9646,5.9587,5.9602,5.9612,5.9649,5.9649,5.967,5.9683,5.9684,5.9663,5.9699,5.971,5.9784,5.9833,5.9739,5.9744,5.998,5.9985,5.999,6.0061,0,0,0,0,0,0,5.9502,5.9522,5.9559,5.9588,5.9605,5.9714,5.9652,5.9652,5.968,5.9674,5.9702,5.9704,5.9698,5.9776,5.9789,5.9839,5.9748,5.9975,5.9982,5.9988,6.0054,6.0068,6.0079,0,0,0,0,0,5.9496,5.9575,5.9561,5.9577,5.9653,5.9717,5.9726,5.972,5.9684,5.9721,5.973,5.9703,5.9826,5.9784,5.9799,5.985,5.9972,5.998,5.9988,6.0048,6.0065,6.0079,0,0,0,0,0,0,5.9548,5.9578,5.9564,5.9654,5.9684,5.9709,5.9755,5.9737,5.9776,5.9768,5.9756,5.9763,5.9842,5.9853,5.9807,5.9945,5.9893,5.9904,5.9934,5.995,5.9963,5.9958,5.9753,0,0,0,0,0,5.9571,5.9623,5.9645,5.9722,5.9739,5.9745,5.9772,5.9765,5.9794,5.9806,5.982,5.9847,5.9892,5.9922,5.9963,6.0056,6.0061,6.0098,6.0111,6.0121,6.0131,6.0181,6.0198,6.0017,6.0017,6.0017,0,0,5.9616,5.9639,5.9672,5.9734,5.9756,5.9808,5.9755,5.9812,5.9851,5.9813,5.9886,5.9897,5.9927,6.0011,6.0049,6.0023,6.0182,6.0131,6.0139,6.0143,6.0191,6.0208,6.0223,6.0022,6.0021,6.0021,0,0,5.9727,5.975,5.9818,5.9842,5.9877,5.9881,5.9898,5.9926,5.9933,6.0006,5.998,6.0024,6.0101,6.0124,6.0146,6.0267,6.0244,6.0281,6.0347,6.0396,6.041,6.0423,6.0467,6.0482,6.029,6.0291,6.0291,0,5.9779,5.9859,5.9854,5.9915,5.9942,5.9914,5.9982,6.0004,6.005,6.0069,6.0041,6.0139,6.0156,6.0246,6.0276,6.0294,6.0312,6.0278,6.0409,6.0422,6.0433,6.0475,6.0491,6.0295,6.0295,6.0294,6.0294,0,5.9921,5.9977,6.0028,6.0077,6.011,6.0173,6.0176,6.021,6.02,6.0207,6.0281,6.0302,6.0349,6.0369,6.0359,6.0458,6.0441,6.0411,6.0359,6.0455,6.0494,6.051,6.0301,6.03,6.0298,6.0297,0,0,6.0065,6.0113,6.0131,6.0153,6.0191,6.0233,6.0295,6.0344,6.0373,6.0406,6.0457,6.0524,6.0498,6.0522,6.0514,6.0558,6.0653,6.0522,6.0523,6.0546,6.0764,6.0786,6.0805,6.0638,6.0641,6.0644,6.0761,0,6.0178,6.029,6.0288,6.039,6.0442,6.0417,6.0471,6.0499,6.0507,6.055,6.0558,6.0607,6.0567,6.0582,6.0624,6.0633,6.0697,6.0624,6.0684,6.0687,6.0678,6.0825,6.0849,6.0959,6.0776,6.0779,6.0781,0,6.0325,6.0367,6.0475,6.0508,6.0529,6.0578,6.0623,6.0665,6.0696,6.0699,6.0728,6.0714,6.0775,6.0722,6.0806,6.0757,6.0782,6.079,6.0794,6.0799,6.074,6.0834,6.0993,6.101,6.0805,6.0803,6.0801,0,6.042,6.0502,6.0579,6.0598,6.0637,6.0673,6.069,6.0718,6.0748,6.0786,6.0805,6.0849,6.0872,6.0906,6.0904,6.0865,6.0989,6.0936,6.0992,6.0993,6.1019,6.1017,6.1185,6.1035,6.1035,6.1034,6.1034,0,6.0546,6.0614,6.0622,6.0669,6.0744,6.074,6.0814,6.0827,6.0853,6.0901,6.088,6.0925,6.0919,6.0964,6.0962,6.1032,6.1043,6.1046,6.1044,6.1048,6.1048,6.1063,6.1056,6.1039,6.1038,6.1037,6.1036,0,6.0664,6.0673,6.0754,6.0786,6.0795,6.0849,6.0875,6.0918,6.0926,6.0986,6.1,6.1011,6.1062,6.1064,6.1122,6.112,6.1207,6.1196,6.1197,6.1195,6.1252,6.1247,6.1435,6.146,6.1294,6.1296,6.1297,0,6.0745,6.0797,6.0835,6.0867,6.0888,6.0939,6.097,6.0968,6.1001,6.1041,6.108,6.1131,6.1171,6.1254,6.1265,6.131,6.1301,6.1364,6.1307,6.1309,6.1302,6.1299,6.1304,6.1375,6.1377,6.1378,6.1379,0,6.0886,6.0889,6.0936,6.0985,6.1024,6.1061,6.1096,6.1123,6.1125,6.1162,6.1217,6.1248,6.131,6.136,6.1403,6.1419,6.1399,6.1397,6.1413,6.1417,6.1415,6.1417,6.1227,6.1393,6.1391,6.139,6.139,6.1389,6.0988,6.1034,6.1069,6.1122,6.1149,6.1183,6.1226,6.124,6.1286,6.1338,6.1333,6.1394,6.1423,6.1481,6.15,6.1546,6.1524,6.1546,6.1552,6.1557,6.1564,6.1409,6.1554,6.1553,6.1553,6.1553,6.1552,0,6.1129,6.1151,6.1201,6.1252,6.1294,6.1275,6.1313,6.1349,6.1403,6.1434,6.1475,6.1538,6.1587,6.1603,6.165,6.1683,6.1676,6.1696,6.1693,6.1697,6.1581,6.1563,6.1701,6.1701,6.1701,6.1701,6.1701,6.1701,6.1208,6.1285,6.1292,6.1381,6.1401,6.1463,6.1486,6.1517,6.1542,6.1614,6.1655,6.1667,6.1692,6.1741,6.1784,6.1788,6.1806,6.183,6.1829,6.172,6.1705,6.1691,6.1674,6.1834,6.1834,6.1942,6.1943,6.1944]}]]